Time,TemperatureF,DewpointF,PressureIn,WindDirection,WindDirectionDegrees,WindSpeedMPH,WindSpeedGustMPH,Humidity,HourlyPrecipIn,Conditions,Clouds,dailyrainin,SolarRadiationWatts/m^2,SoftwareType,DateUTC
2013-08-07 00:00:00,77.4,74.9,29.92,SW,225,0.0,1.0,92,0.00,,-RA,0.00,0.00,VWS V14.01,2013-08-07 04:00:00,
2013-08-07 00:05:00,77.4,74.9,29.92,SW,225,0.0,1.0,92,0.00,,-RA,0.00,0.00,VWS V14.01,2013-08-07 04:05:00,
2013-08-07 00:10:00,77.4,74.9,29.92,SW,225,0.0,0.0,92,0.00,,-RA,0.00,0.00,VWS V14.01,2013-08-07 04:10:00,
2013-08-07 00:15:00,77.4,74.9,29.92,SW,225,1.0,2.0,92,0.00,,-RA,0.00,0.00,VWS V14.01,2013-08-07 04:15:00,
2013-08-07 00:20:00,77.4,74.9,29.92,SW,225,0.0,1.0,92,0.00,,-RA,0.00,0.00,VWS V14.01,2013-08-07 04:20:00,
2013-08-07 00:25:00,77.4,74.9,29.91,SW,225,0.0,0.0,92,0.00,,-RA,0.00,0.00,VWS V14.01,2013-08-07 04:25:00,
2013-08-07 00:30:00,77.4,74.9,29.91,SW,225,0.0,0.0,92,0.00,,-RA,0.00,0.00,VWS V14.01,2013-08-07 04:30:00,
2013-08-07 00:35:00,77.4,74.9,29.91,SW,225,0.0,0.0,92,0.00,,-RA,0.00,0.00,VWS V14.01,2013-08-07 04:35:00,
2013-08-07 00:40:00,77.4,75.2,29.91,SW,225,0.0,0.0,93,0.00,,-RA,0.00,0.00,VWS V14.01,2013-08-07 04:40:00,
2013-08-07 00:45:00,77.5,75.3,29.91,SW,225,0.0,0.0,93,0.00,,-RA,0.00,0.00,VWS V14.01,2013-08-07 04:45:00,
2013-08-07 00:50:00,77.5,75.3,29.91,SW,225,0.0,0.0,93,0.00,,-RA,0.00,0.00,VWS V14.01,2013-08-07 04:50:00,
2013-08-07 00:55:00,77.4,75.2,29.91,SW,225,0.0,0.0,93,0.00,,-RA,0.00,0.00,VWS V14.01,2013-08-07 04:55:00,
2013-08-07 01:00:00,77.4,75.2,29.90,SW,225,0.0,0.0,93,0.00,,-RA,0.00,0.00,VWS V14.01,2013-08-07 05:00:00,
2013-08-07 01:05:00,77.4,75.2,29.90,SW,225,0.0,0.0,93,0.00,,-RA,0.00,0.00,VWS V14.01,2013-08-07 05:05:00,
2013-08-07 01:10:00,77.3,75.1,29.90,SW,225,0.0,0.0,93,0.00,,-RA,0.00,0.00,VWS V14.01,2013-08-07 05:10:00,
2013-08-07 01:15:00,77.3,75.1,29.90,SW,225,0.0,0.0,93,0.00,,-RA,0.00,0.00,VWS V14.01,2013-08-07 05:15:00,
2013-08-07 01:20:00,77.3,75.1,29.90,SW,225,0.0,0.0,93,0.00,,-RA,0.00,0.00,VWS V14.01,2013-08-07 05:20:00,
2013-08-07 01:25:00,77.2,75.0,29.90,SW,225,0.0,0.0,93,0.00,,-RA,0.00,0.00,VWS V14.01,2013-08-07 05:25:00,
2013-08-07 01:30:00,77.3,75.1,29.90,SW,225,0.0,0.0,93,0.00,,-RA,0.00,0.00,VWS V14.01,2013-08-07 05:30:00,
2013-08-07 01:35:00,77.2,75.0,29.90,SW,225,0.0,0.0,93,0.00,,-RA,0.00,0.00,VWS V14.01,2013-08-07 05:35:00,
2013-08-07 01:40:00,77.1,74.9,29.90,SW,225,0.0,0.0,93,0.00,,-RA,0.00,0.00,VWS V14.01,2013-08-07 05:40:00,
2013-08-07 01:45:00,77.1,74.9,29.89,SW,225,0.0,0.0,93,0.00,,-RA,0.00,0.00,VWS V14.01,2013-08-07 05:45:00,
2013-08-07 01:50:00,77.1,74.9,29.89,SW,225,0.0,0.0,93,0.00,,-RA,0.00,0.00,VWS V14.01,2013-08-07 05:50:00,
2013-08-07 01:55:00,77.1,74.9,29.89,SW,225,0.0,0.0,93,0.00,,-RA,0.00,0.00,VWS V14.01,2013-08-07 05:55:00,
2013-08-07 02:00:00,77.2,75.0,29.89,SW,225,0.0,0.0,93,0.00,,-RA,0.00,0.00,VWS V14.01,2013-08-07 06:00:00,
2013-08-07 02:05:00,77.2,75.0,29.89,SW,225,0.0,0.0,93,0.00,,-RA,0.00,0.00,VWS V14.01,2013-08-07 06:05:00,
2013-08-07 02:10:00,77.2,75.0,29.89,SW,225,0.0,0.0,93,0.00,,-RA,0.00,0.00,VWS V14.01,2013-08-07 06:10:00,
2013-08-07 02:15:00,77.2,75.0,29.89,SW,225,0.0,0.0,93,0.00,,-RA,0.00,0.00,VWS V14.01,2013-08-07 06:15:00,
2013-08-07 02:20:00,77.2,75.0,29.89,SW,225,0.0,1.0,93,0.00,,-RA,0.00,0.00,VWS V14.01,2013-08-07 06:20:00,
2013-08-07 02:25:00,77.2,75.0,29.89,SW,225,0.0,1.0,93,0.00,,-RA,0.00,0.00,VWS V14.01,2013-08-07 06:25:00,
2013-08-07 02:30:00,77.2,75.0,29.89,SW,225,0.0,0.0,93,0.00,,-RA,0.00,0.00,VWS V14.01,2013-08-07 06:30:00,
2013-08-07 02:35:00,77.1,74.9,29.88,SW,225,0.0,0.0,93,0.00,,-RA,0.00,0.00,VWS V14.01,2013-08-07 06:35:00,
2013-08-07 02:40:00,77.1,74.9,29.88,SW,225,0.0,0.0,93,0.00,,-RA,0.00,0.00,VWS V14.01,2013-08-07 06:40:00,
2013-08-07 02:45:00,77.1,74.9,29.88,SW,225,0.0,0.0,93,0.00,,-RA,0.00,0.00,VWS V14.01,2013-08-07 06:45:00,
2013-08-07 02:50:00,77.1,74.9,29.88,SW,225,0.0,0.0,93,0.00,,-RA,0.00,0.00,VWS V14.01,2013-08-07 06:50:00,
2013-08-07 02:55:00,77.0,74.8,29.88,SW,225,0.0,0.0,93,0.00,,-RA,0.00,0.00,VWS V14.01,2013-08-07 06:55:00,
2013-08-07 03:00:00,76.9,74.7,29.88,SW,225,0.0,1.0,93,0.01,,-RA,0.01,0.00,VWS V14.01,2013-08-07 07:00:00,
2013-08-07 03:05:00,76.9,74.7,29.88,SW,225,0.0,0.0,93,0.01,,-RA,0.01,0.00,VWS V14.01,2013-08-07 07:05:00,
2013-08-07 03:10:00,76.8,74.6,29.88,SW,225,0.0,0.0,93,0.01,,-RA,0.01,0.00,VWS V14.01,2013-08-07 07:10:00,
2013-08-07 03:15:00,76.8,74.6,29.88,SW,225,0.0,0.0,93,0.01,,-RA,0.01,0.00,VWS V14.01,2013-08-07 07:15:00,
2013-08-07 03:20:00,76.7,74.5,29.88,SW,225,0.0,0.0,93,0.01,,-RA,0.01,0.00,VWS V14.01,2013-08-07 07:20:00,
2013-08-07 03:25:00,76.7,74.5,29.88,SW,225,0.0,0.0,93,0.01,,-RA,0.01,0.00,VWS V14.01,2013-08-07 07:25:00,
2013-08-07 03:30:00,76.8,74.6,29.88,SW,225,0.0,1.0,93,0.01,,-RA,0.01,0.00,VWS V14.01,2013-08-07 07:30:00,
2013-08-07 03:35:00,76.7,74.5,29.88,SW,225,0.0,0.0,93,0.01,,-RA,0.01,0.00,VWS V14.01,2013-08-07 07:35:00,
2013-08-07 03:40:00,76.8,74.6,29.88,SW,225,0.0,0.0,93,0.01,,-RA,0.01,0.00,VWS V14.01,2013-08-07 07:40:00,
2013-08-07 03:45:00,76.7,74.5,29.88,SW,225,0.0,2.0,93,0.01,,-RA,0.01,0.00,VWS V14.01,2013-08-07 07:45:00,
2013-08-07 03:50:00,76.8,74.9,29.88,SW,225,0.0,1.0,94,0.01,,-RA,0.01,0.00,VWS V14.01,2013-08-07 07:50:00,
2013-08-07 03:55:00,76.8,74.9,29.88,SW,225,0.0,0.0,94,0.01,,-RA,0.01,0.00,VWS V14.01,2013-08-07 07:55:00,
2013-08-07 04:00:00,76.7,74.8,29.88,SW,225,0.0,0.0,94,0.01,,-RA,0.01,0.00,VWS V14.01,2013-08-07 08:00:00,
2013-08-07 04:05:00,76.8,74.9,29.88,SW,225,0.0,0.0,94,0.00,,-RA,0.01,0.00,VWS V14.01,2013-08-07 08:05:00,
2013-08-07 04:10:00,76.9,75.1,29.88,SW,225,0.0,0.0,94,0.00,,-RA,0.01,0.00,VWS V14.01,2013-08-07 08:10:00,
2013-08-07 04:15:00,77.0,75.1,29.88,SW,225,0.0,0.0,94,0.00,,-RA,0.01,0.00,VWS V14.01,2013-08-07 08:15:00,
2013-08-07 04:20:00,77.1,75.2,29.87,SW,225,0.0,0.0,94,0.00,,-RA,0.01,0.00,VWS V14.01,2013-08-07 08:20:00,
2013-08-07 04:25:00,77.1,75.2,29.88,SW,225,0.0,0.0,94,0.00,,-RA,0.01,0.00,VWS V14.01,2013-08-07 08:25:00,
2013-08-07 04:30:00,77.1,75.2,29.87,SW,225,0.0,0.0,94,0.00,,-RA,0.01,0.00,VWS V14.01,2013-08-07 08:30:00,
2013-08-07 04:35:00,77.1,75.2,29.87,SW,225,0.0,0.0,94,0.00,,-RA,0.01,0.00,VWS V14.01,2013-08-07 08:35:00,
2013-08-07 04:40:00,76.9,75.1,29.87,SW,225,0.0,0.0,94,0.00,,-RA,0.01,0.00,VWS V14.01,2013-08-07 08:40:00,
2013-08-07 04:45:00,76.9,75.1,29.87,SW,225,0.0,0.0,94,0.00,,-RA,0.01,0.00,VWS V14.01,2013-08-07 08:45:00,
2013-08-07 04:50:00,76.9,75.1,29.88,SW,225,0.0,0.0,94,0.00,,-RA,0.01,0.00,VWS V14.01,2013-08-07 08:50:00,
2013-08-07 04:55:00,76.8,74.9,29.88,SW,225,0.0,0.0,94,0.00,,-RA,0.01,0.00,VWS V14.01,2013-08-07 08:55:00,
2013-08-07 05:00:00,76.8,74.9,29.87,SW,225,0.0,0.0,94,0.00,,-RA,0.01,0.00,VWS V14.01,2013-08-07 09:00:00,
2013-08-07 05:05:00,76.9,75.1,29.87,SW,225,0.0,0.0,94,0.00,,-RA,0.01,0.00,VWS V14.01,2013-08-07 09:05:00,
2013-08-07 05:10:00,76.9,75.1,29.87,SW,225,0.0,0.0,94,0.00,,-RA,0.01,0.00,VWS V14.01,2013-08-07 09:10:00,
2013-08-07 05:15:00,76.9,75.1,29.88,SW,225,0.0,0.0,94,0.00,,-RA,0.01,0.00,VWS V14.01,2013-08-07 09:15:00,
2013-08-07 05:20:00,77.0,75.1,29.88,SW,225,0.0,1.0,94,0.00,,-RA,0.01,0.00,VWS V14.01,2013-08-07 09:20:00,
2013-08-07 05:25:00,77.2,75.3,29.88,SW,225,0.0,1.0,94,0.00,,-RA,0.01,0.00,VWS V14.01,2013-08-07 09:25:00,
2013-08-07 05:30:00,77.3,75.4,29.88,SW,225,0.0,1.0,94,0.00,,-RA,0.01,0.00,VWS V14.01,2013-08-07 09:30:00,
2013-08-07 05:35:00,77.4,75.9,29.88,SW,225,0.0,0.0,95,0.00,,-RA,0.01,0.00,VWS V14.01,2013-08-07 09:35:00,
2013-08-07 05:40:00,77.4,75.9,29.88,SW,225,0.0,0.0,95,0.00,,-RA,0.01,0.00,VWS V14.01,2013-08-07 09:40:00,
2013-08-07 05:45:00,77.4,75.9,29.89,SW,225,0.0,0.0,95,0.00,,-RA,0.01,0.00,VWS V14.01,2013-08-07 09:45:00,
2013-08-07 05:50:00,77.3,75.8,29.88,SW,225,0.0,0.0,95,0.00,,-RA,0.01,0.00,VWS V14.01,2013-08-07 09:50:00,
2013-08-07 05:55:00,77.4,75.9,29.88,SW,225,0.0,0.0,95,0.00,,-RA,0.01,0.00,VWS V14.01,2013-08-07 09:55:00,
2013-08-07 06:00:00,77.4,75.9,29.88,SW,225,0.0,0.0,95,0.00,,-RA,0.01,0.00,VWS V14.01,2013-08-07 10:00:00,
2013-08-07 06:05:00,77.3,75.8,29.89,SW,225,0.0,0.0,95,0.00,,-RA,0.01,0.00,VWS V14.01,2013-08-07 10:05:00,
2013-08-07 06:10:00,77.2,75.7,29.89,SW,225,0.0,0.0,95,0.00,,-RA,0.01,0.00,VWS V14.01,2013-08-07 10:10:00,
2013-08-07 06:15:00,77.2,75.7,29.89,SW,225,0.0,0.0,95,0.00,,-RA,0.01,0.00,VWS V14.01,2013-08-07 10:15:00,
2013-08-07 06:20:00,77.1,75.6,29.89,SW,225,0.0,0.0,95,0.00,,-RA,0.01,0.00,VWS V14.01,2013-08-07 10:20:00,
2013-08-07 06:25:00,77.1,75.6,29.89,SW,225,0.0,0.0,95,0.00,,-RA,0.01,0.00,VWS V14.01,2013-08-07 10:25:00,
2013-08-07 06:30:00,77.2,75.7,29.89,SW,225,0.0,0.0,95,0.00,,-RA,0.01,0.00,VWS V14.01,2013-08-07 10:30:00,
2013-08-07 06:35:00,77.2,75.7,29.89,SW,225,0.0,0.0,95,0.00,,-RA,0.01,0.00,VWS V14.01,2013-08-07 10:35:00,
2013-08-07 06:40:00,77.3,75.8,29.89,SW,225,0.0,0.0,95,0.00,,-RA,0.01,0.00,VWS V14.01,2013-08-07 10:40:00,
2013-08-07 06:45:00,77.2,75.7,29.89,SW,225,0.0,0.0,95,0.00,,-RA,0.01,0.00,VWS V14.01,2013-08-07 10:45:00,
2013-08-07 06:50:00,77.2,75.7,29.90,SW,225,0.0,0.0,95,0.00,,-RA,0.01,0.00,VWS V14.01,2013-08-07 10:50:00,
2013-08-07 06:55:00,77.2,75.7,29.90,SW,225,0.0,0.0,95,0.00,,-RA,0.01,2.00,VWS V14.01,2013-08-07 10:55:00,
2013-08-07 07:00:00,77.3,75.8,29.90,SW,225,0.0,0.0,95,0.00,,-RA,0.01,6.00,VWS V14.01,2013-08-07 11:00:00,
2013-08-07 07:05:00,77.4,75.9,29.90,SW,225,0.0,0.0,95,0.00,,-RA,0.01,9.00,VWS V14.01,2013-08-07 11:05:00,
2013-08-07 07:10:00,77.4,75.9,29.90,SW,225,0.0,0.0,95,0.00,,-RA,0.01,11.00,VWS V14.01,2013-08-07 11:10:00,
2013-08-07 07:15:00,77.3,75.8,29.90,SW,225,0.0,0.0,95,0.00,,-RA,0.01,12.00,VWS V14.01,2013-08-07 11:15:00,
2013-08-07 07:20:00,77.4,75.9,29.90,SW,225,0.0,0.0,95,0.00,,-RA,0.01,29.00,VWS V14.01,2013-08-07 11:20:00,
2013-08-07 07:25:00,77.6,76.1,29.91,SW,225,0.0,0.0,95,0.00,,-RA,0.01,46.00,VWS V14.01,2013-08-07 11:25:00,
2013-08-07 07:30:00,77.9,76.4,29.90,SW,225,0.0,0.0,95,0.00,,-RA,0.01,58.00,VWS V14.01,2013-08-07 11:30:00,
2013-08-07 07:35:00,78.2,76.7,29.91,SW,225,0.0,0.0,95,0.00,,-RA,0.01,72.00,VWS V14.01,2013-08-07 11:35:00,
2013-08-07 07:40:00,78.4,76.8,29.91,SW,225,0.0,0.0,95,0.00,,-RA,0.01,85.00,VWS V14.01,2013-08-07 11:40:00,
2013-08-07 07:45:00,78.6,77.1,29.90,SW,225,0.0,1.0,95,0.00,,-RA,0.01,99.00,VWS V14.01,2013-08-07 11:45:00,
2013-08-07 07:50:00,78.8,77.2,29.91,SW,225,0.0,0.0,95,0.00,,-RA,0.01,115.00,VWS V14.01,2013-08-07 11:50:00,
2013-08-07 07:55:00,79.0,77.4,29.91,SW,225,0.0,0.0,95,0.00,,-RA,0.01,133.00,VWS V14.01,2013-08-07 11:55:00,
2013-08-07 08:00:00,79.2,77.7,29.91,SW,225,0.0,0.0,95,0.00,,-RA,0.01,147.00,VWS V14.01,2013-08-07 12:00:00,
2013-08-07 08:05:00,79.5,77.9,29.91,SW,225,0.0,3.0,95,0.00,,-RA,0.01,166.00,VWS V14.01,2013-08-07 12:05:00,
2013-08-07 08:10:00,79.9,78.3,29.91,SW,225,0.0,3.0,95,0.00,,-RA,0.01,180.00,VWS V14.01,2013-08-07 12:10:00,
2013-08-07 08:15:00,80.1,78.5,29.91,SW,225,1.0,5.0,95,0.00,,-RA,0.01,185.00,VWS V14.01,2013-08-07 12:15:00,
2013-08-07 08:20:00,80.6,78.7,29.91,SW,225,1.0,5.0,94,0.00,,-RA,0.01,181.00,VWS V14.01,2013-08-07 12:20:00,
2013-08-07 08:25:00,81.0,78.8,29.91,SSW,202,1.0,4.0,93,0.00,,-RA,0.01,194.00,VWS V14.01,2013-08-07 12:25:00,
2013-08-07 08:30:00,81.5,79.3,29.92,SSW,202,1.0,6.0,93,0.00,,-RA,0.01,229.00,VWS V14.01,2013-08-07 12:30:00,
2013-08-07 08:35:00,81.9,79.0,29.92,SE,135,2.0,6.0,91,0.00,,-RA,0.01,255.00,VWS V14.01,2013-08-07 12:35:00,
2013-08-07 08:40:00,82.4,79.2,29.92,SE,135,1.0,4.0,90,0.00,,-RA,0.01,272.00,VWS V14.01,2013-08-07 12:40:00,
2013-08-07 08:45:00,83.0,79.4,29.92,SE,135,1.0,5.0,89,0.00,,-RA,0.01,290.00,VWS V14.01,2013-08-07 12:45:00,
2013-08-07 08:50:00,83.6,79.7,29.92,SE,135,1.0,5.0,88,0.00,,-RA,0.01,307.00,VWS V14.01,2013-08-07 12:50:00,
2013-08-07 08:55:00,84.2,78.8,29.92,SSE,158,3.0,9.0,84,0.00,,-RA,0.01,324.00,VWS V14.01,2013-08-07 12:55:00,
2013-08-07 09:00:00,84.7,78.6,29.92,SE,135,3.0,5.0,82,0.00,,-RA,0.01,324.00,VWS V14.01,2013-08-07 13:00:00,
2013-08-07 09:05:00,85.1,78.2,29.92,SE,135,2.0,6.0,80,0.00,,-RA,0.01,371.00,VWS V14.01,2013-08-07 13:05:00,
2013-08-07 09:10:00,85.6,78.7,29.92,SE,135,1.0,4.0,80,0.00,,-RA,0.01,237.00,VWS V14.01,2013-08-07 13:10:00,
2013-08-07 09:15:00,85.5,78.2,29.92,SE,135,3.0,9.0,79,0.00,,-RA,0.01,362.00,VWS V14.01,2013-08-07 13:15:00,
2013-08-07 09:20:00,85.5,77.9,29.92,SE,135,4.0,10.0,78,0.00,,-RA,0.01,220.00,VWS V14.01,2013-08-07 13:20:00,
2013-08-07 09:25:00,85.3,77.7,29.92,SE,135,1.0,5.0,78,0.00,,-RA,0.01,174.00,VWS V14.01,2013-08-07 13:25:00,
2013-08-07 09:30:00,85.4,77.8,29.93,SE,135,2.0,5.0,78,0.00,,-RA,0.01,468.00,VWS V14.01,2013-08-07 13:30:00,
2013-08-07 09:35:00,85.8,77.8,29.92,SE,135,0.0,2.0,77,0.00,,-RA,0.01,339.00,VWS V14.01,2013-08-07 13:35:00,
2013-08-07 09:40:00,86.1,78.1,29.93,SE,135,1.0,5.0,77,0.00,,-RA,0.01,216.00,VWS V14.01,2013-08-07 13:40:00,
2013-08-07 09:45:00,86.2,77.8,29.93,SE,135,2.0,5.0,76,0.00,,-RA,0.01,118.00,VWS V14.01,2013-08-07 13:45:00,
2013-08-07 09:50:00,85.9,77.5,29.93,SE,135,4.0,11.0,76,0.00,,-RA,0.01,76.00,VWS V14.01,2013-08-07 13:50:00,
2013-08-07 09:55:00,85.6,77.6,29.93,SE,135,5.0,10.0,77,0.01,,-RA,0.02,88.00,VWS V14.01,2013-08-07 13:55:00,
2013-08-07 10:00:00,84.6,78.1,29.93,SE,135,3.0,8.0,81,0.07,,-RA,0.08,119.00,VWS V14.01,2013-08-07 14:00:00,
2013-08-07 10:05:00,84.2,78.5,29.93,SE,135,0.0,1.0,83,0.08,,-RA,0.09,169.00,VWS V14.01,2013-08-07 14:05:00,
2013-08-07 10:10:00,84.2,78.8,29.93,SE,135,0.0,3.0,84,0.08,,-RA,0.09,194.00,VWS V14.01,2013-08-07 14:10:00,
2013-08-07 10:15:00,84.1,78.8,29.93,SE,135,0.0,4.0,84,0.08,,-RA,0.09,183.00,VWS V14.01,2013-08-07 14:15:00,
2013-08-07 10:20:00,84.0,79.0,29.93,SE,135,0.0,3.0,85,0.08,,-RA,0.09,644.00,VWS V14.01,2013-08-07 14:20:00,
2013-08-07 10:25:00,84.1,79.5,29.93,SE,135,0.0,4.0,86,0.08,,-RA,0.09,651.00,VWS V14.01,2013-08-07 14:25:00,
2013-08-07 10:30:00,84.3,79.7,29.93,SE,135,1.0,4.0,86,0.08,,-RA,0.09,546.00,VWS V14.01,2013-08-07 14:30:00,
2013-08-07 10:35:00,84.5,79.1,29.93,SE,135,3.0,9.0,84,0.08,,-RA,0.09,232.00,VWS V14.01,2013-08-07 14:35:00,
2013-08-07 10:40:00,84.7,78.6,29.93,SE,135,4.0,9.0,82,0.08,,-RA,0.09,746.00,VWS V14.01,2013-08-07 14:40:00,
2013-08-07 10:45:00,85.2,78.3,29.93,SSE,158,3.0,6.0,80,0.08,,-RA,0.09,383.00,VWS V14.01,2013-08-07 14:45:00,
2013-08-07 10:50:00,85.2,77.6,29.94,SE,135,4.0,10.0,78,0.08,,-RA,0.09,183.00,VWS V14.01,2013-08-07 14:50:00,
2013-08-07 10:55:00,85.2,77.9,29.94,SE,135,3.0,7.0,79,0.08,,-RA,0.09,182.00,VWS V14.01,2013-08-07 14:55:00,
2013-08-07 11:00:00,85.3,78.1,29.94,ESE,112,2.0,6.0,79,0.07,,-RA,0.09,223.00,VWS V14.01,2013-08-07 15:00:00,
2013-08-07 11:05:00,85.2,77.6,29.94,SE,135,2.0,7.0,78,0.01,,-RA,0.09,272.00,VWS V14.01,2013-08-07 15:05:00,
2013-08-07 11:10:00,85.1,77.1,29.94,SE,135,4.0,7.0,77,0.00,,-RA,0.09,310.00,VWS V14.01,2013-08-07 15:10:00,
2013-08-07 11:15:00,85.2,76.8,29.94,SE,135,4.0,10.0,76,0.00,,-RA,0.09,340.00,VWS V14.01,2013-08-07 15:15:00,
2013-08-07 11:20:00,85.5,77.1,29.94,SSE,158,3.0,7.0,76,0.00,,-RA,0.09,322.00,VWS V14.01,2013-08-07 15:20:00,
2013-08-07 11:25:00,85.8,77.0,29.94,ESE,112,4.0,11.0,75,0.00,,-RA,0.09,469.00,VWS V14.01,2013-08-07 15:25:00,
2013-08-07 11:30:00,86.3,76.2,29.93,SE,135,5.0,10.0,72,0.00,,-RA,0.09,563.00,VWS V14.01,2013-08-07 15:30:00,
2013-08-07 11:35:00,87.1,76.6,29.93,SE,135,4.0,12.0,71,0.00,,-RA,0.09,902.00,VWS V14.01,2013-08-07 15:35:00,
2013-08-07 11:40:00,87.8,76.4,29.93,ESE,112,3.0,7.0,69,0.00,,-RA,0.09,896.00,VWS V14.01,2013-08-07 15:40:00,
2013-08-07 11:45:00,88.5,77.0,29.93,SE,135,2.0,8.0,69,0.00,,-RA,0.09,447.00,VWS V14.01,2013-08-07 15:45:00,
2013-08-07 11:50:00,88.9,76.5,29.92,SE,135,5.0,10.0,67,0.00,,-RA,0.09,969.00,VWS V14.01,2013-08-07 15:50:00,
2013-08-07 11:55:00,89.1,76.7,29.93,ESE,112,4.0,9.0,67,0.00,,-RA,0.09,959.00,VWS V14.01,2013-08-07 15:55:00,
2013-08-07 12:00:00,89.5,77.6,29.93,SE,135,4.0,10.0,68,0.00,,-RA,0.09,1000.00,VWS V14.01,2013-08-07 16:00:00,
2013-08-07 12:05:00,89.4,76.6,29.92,East,90,4.0,12.0,66,0.00,,-RA,0.09,571.00,VWS V14.01,2013-08-07 16:05:00,
2013-08-07 12:10:00,89.2,76.8,29.93,SE,135,7.0,12.0,67,0.00,,-RA,0.09,1034.00,VWS V14.01,2013-08-07 16:10:00,
2013-08-07 12:15:00,89.2,77.7,29.93,SE,135,7.0,19.0,69,0.00,,-RA,0.09,454.00,VWS V14.01,2013-08-07 16:15:00,
2013-08-07 12:20:00,89.3,78.7,29.92,SE,135,5.0,11.0,71,0.00,,-RA,0.09,1086.00,VWS V14.01,2013-08-07 16:20:00,
2013-08-07 12:25:00,89.0,77.5,29.92,SE,135,6.0,12.0,69,0.00,,-RA,0.09,285.00,VWS V14.01,2013-08-07 16:25:00,
2013-08-07 12:30:00,88.4,76.9,29.92,SE,135,6.0,13.0,69,0.00,,-RA,0.09,234.00,VWS V14.01,2013-08-07 16:30:00,
2013-08-07 12:35:00,87.4,76.8,29.93,SE,135,10.0,19.0,71,0.00,,-RA,0.09,284.00,VWS V14.01,2013-08-07 16:35:00,
2013-08-07 12:40:00,87.3,77.2,29.93,SE,135,8.0,15.0,72,0.00,,-RA,0.09,1095.00,VWS V14.01,2013-08-07 16:40:00,
2013-08-07 12:45:00,88.4,77.4,29.93,SE,135,8.0,14.0,70,0.00,,-RA,0.09,1103.00,VWS V14.01,2013-08-07 16:45:00,
2013-08-07 12:50:00,88.8,77.8,29.93,SE,135,8.0,14.0,70,0.00,,-RA,0.09,923.00,VWS V14.01,2013-08-07 16:50:00,
2013-08-07 12:55:00,89.0,77.1,29.93,SE,135,11.0,18.0,68,0.00,,-RA,0.09,822.00,VWS V14.01,2013-08-07 16:55:00,
2013-08-07 13:00:00,89.0,76.2,29.93,SE,135,10.0,17.0,66,0.00,,-RA,0.09,927.00,VWS V14.01,2013-08-07 17:00:00,
2013-08-07 13:05:00,89.0,76.6,29.93,SE,135,10.0,19.0,67,0.00,,-RA,0.09,953.00,VWS V14.01,2013-08-07 17:05:00,
2013-08-07 13:10:00,89.1,77.2,29.92,SE,135,7.0,16.0,68,0.00,,-RA,0.09,952.00,VWS V14.01,2013-08-07 17:10:00,
2013-08-07 13:15:00,89.2,77.7,29.92,SE,135,8.0,15.0,69,0.00,,-RA,0.09,1017.00,VWS V14.01,2013-08-07 17:15:00,
2013-08-07 13:20:00,89.1,77.6,29.93,SE,135,7.0,19.0,69,0.00,,-RA,0.09,963.00,VWS V14.01,2013-08-07 17:20:00,
2013-08-07 13:25:00,89.4,77.0,29.93,SE,135,6.0,14.0,67,0.00,,-RA,0.09,1031.00,VWS V14.01,2013-08-07 17:25:00,
2013-08-07 13:30:00,89.4,76.1,29.93,ESE,112,5.0,11.0,65,0.00,,-RA,0.09,829.00,VWS V14.01,2013-08-07 17:30:00,
2013-08-07 13:35:00,89.5,76.7,29.93,SE,135,4.0,11.0,66,0.00,,-RA,0.09,570.00,VWS V14.01,2013-08-07 17:35:00,
2013-08-07 13:40:00,89.7,76.8,29.93,East,90,4.0,13.0,66,0.00,,-RA,0.09,930.00,VWS V14.01,2013-08-07 17:40:00,
2013-08-07 13:45:00,89.2,77.3,29.93,East,90,4.0,12.0,68,0.00,,-RA,0.09,746.00,VWS V14.01,2013-08-07 17:45:00,
2013-08-07 13:50:00,88.8,77.3,29.93,ESE,112,6.0,10.0,69,0.00,,-RA,0.09,493.00,VWS V14.01,2013-08-07 17:50:00,
2013-08-07 13:55:00,89.1,77.2,29.93,SE,135,6.0,14.0,68,0.00,,-RA,0.09,517.00,VWS V14.01,2013-08-07 17:55:00,
2013-08-07 14:00:00,89.1,77.2,29.92,ESE,112,4.0,11.0,68,0.00,,-RA,0.09,1013.00,VWS V14.01,2013-08-07 18:00:00,
2013-08-07 14:05:00,89.8,76.0,29.92,SE,135,7.0,14.0,64,0.00,,-RA,0.09,1087.00,VWS V14.01,2013-08-07 18:05:00,
2013-08-07 14:10:00,89.9,76.6,29.92,SE,135,6.0,11.0,65,0.00,,-RA,0.09,1021.00,VWS V14.01,2013-08-07 18:10:00,
2013-08-07 14:15:00,89.6,75.3,29.92,SE,135,5.0,14.0,63,0.00,,-RA,0.09,989.00,VWS V14.01,2013-08-07 18:15:00,
2013-08-07 14:20:00,89.5,75.2,29.92,ESE,112,5.0,11.0,63,0.00,,-RA,0.09,987.00,VWS V14.01,2013-08-07 18:20:00,
2013-08-07 14:25:00,89.8,75.5,29.92,East,90,7.0,16.0,63,0.00,,-RA,0.09,1017.00,VWS V14.01,2013-08-07 18:25:00,
2013-08-07 14:30:00,90.1,76.3,29.92,SE,135,6.0,13.0,64,0.00,,-RA,0.09,991.00,VWS V14.01,2013-08-07 18:30:00,
2013-08-07 14:35:00,90.3,76.5,29.92,SE,135,7.0,18.0,64,0.00,,-RA,0.09,924.00,VWS V14.01,2013-08-07 18:35:00,
2013-08-07 14:40:00,90.1,76.3,29.92,SE,135,7.0,12.0,64,0.00,,-RA,0.09,908.00,VWS V14.01,2013-08-07 18:40:00,
2013-08-07 14:45:00,90.5,76.7,29.92,SE,135,5.0,15.0,64,0.00,,-RA,0.09,1029.00,VWS V14.01,2013-08-07 18:45:00,
2013-08-07 14:50:00,91.1,75.8,29.92,ESE,112,5.0,14.0,61,0.00,,-RA,0.09,972.00,VWS V14.01,2013-08-07 18:50:00,
2013-08-07 14:55:00,90.4,75.6,29.91,ESE,112,7.0,15.0,62,0.00,,-RA,0.09,1054.00,VWS V14.01,2013-08-07 18:55:00,
2013-08-07 15:00:00,90.9,76.6,29.91,SE,135,5.0,13.0,63,0.00,,-RA,0.09,960.00,VWS V14.01,2013-08-07 19:00:00,
2013-08-07 15:05:00,90.7,76.4,29.91,SE,135,7.0,13.0,63,0.00,,-RA,0.09,775.00,VWS V14.01,2013-08-07 19:05:00,
2013-08-07 15:10:00,90.2,75.4,29.91,SE,135,7.0,16.0,62,0.00,,-RA,0.09,520.00,VWS V14.01,2013-08-07 19:10:00,
2013-08-07 15:15:00,90.1,75.8,29.91,SE,135,7.0,13.0,63,0.00,,-RA,0.09,740.00,VWS V14.01,2013-08-07 19:15:00,
2013-08-07 15:20:00,90.5,75.7,29.91,SE,135,6.0,14.0,62,0.00,,-RA,0.09,638.00,VWS V14.01,2013-08-07 19:20:00,
2013-08-07 15:25:00,90.9,76.6,29.91,SE,135,6.0,11.0,63,0.00,,-RA,0.09,908.00,VWS V14.01,2013-08-07 19:25:00,
2013-08-07 15:30:00,91.4,76.1,29.91,SE,135,7.0,14.0,61,0.00,,-RA,0.09,1097.00,VWS V14.01,2013-08-07 19:30:00,
2013-08-07 15:35:00,91.0,76.2,29.90,SSE,158,6.0,13.0,62,0.00,,-RA,0.09,542.00,VWS V14.01,2013-08-07 19:35:00,
2013-08-07 15:40:00,90.7,75.9,29.90,SE,135,6.0,11.0,62,0.00,,-RA,0.09,446.00,VWS V14.01,2013-08-07 19:40:00,
2013-08-07 15:45:00,90.7,75.9,29.90,SE,135,5.0,12.0,62,0.00,,-RA,0.09,537.00,VWS V14.01,2013-08-07 19:45:00,
2013-08-07 15:50:00,90.5,76.2,29.90,SE,135,7.0,14.0,63,0.00,,-RA,0.09,524.00,VWS V14.01,2013-08-07 19:50:00,
2013-08-07 15:55:00,90.5,76.7,29.90,SE,135,6.0,12.0,64,0.00,,-RA,0.09,964.00,VWS V14.01,2013-08-07 19:55:00,
2013-08-07 16:00:00,90.8,76.5,29.89,SE,135,7.0,15.0,63,0.00,,-RA,0.09,1024.00,VWS V14.01,2013-08-07 20:00:00,
2013-08-07 16:05:00,90.9,76.1,29.89,ESE,112,6.0,11.0,62,0.00,,-RA,0.09,616.00,VWS V14.01,2013-08-07 20:05:00,
2013-08-07 16:10:00,90.8,76.5,29.89,SE,135,5.0,11.0,63,0.00,,-RA,0.09,448.00,VWS V14.01,2013-08-07 20:10:00,
2013-08-07 16:15:00,90.1,75.8,29.89,ESE,112,4.0,11.0,63,0.00,,-RA,0.09,478.00,VWS V14.01,2013-08-07 20:15:00,
2013-08-07 16:20:00,89.6,75.8,29.89,ESE,112,6.0,13.0,64,0.00,,-RA,0.09,397.00,VWS V14.01,2013-08-07 20:20:00,
2013-08-07 16:25:00,89.5,76.2,29.89,ESE,112,5.0,13.0,65,0.00,,-RA,0.09,485.00,VWS V14.01,2013-08-07 20:25:00,
2013-08-07 16:30:00,89.5,76.2,29.89,SE,135,7.0,13.0,65,0.00,,-RA,0.09,350.00,VWS V14.01,2013-08-07 20:30:00,
2013-08-07 16:35:00,90.0,76.7,29.89,SE,135,6.0,16.0,65,0.00,,-RA,0.09,798.00,VWS V14.01,2013-08-07 20:35:00,
2013-08-07 16:40:00,90.4,77.0,29.89,ESE,112,5.0,12.0,65,0.00,,-RA,0.09,770.00,VWS V14.01,2013-08-07 20:40:00,
2013-08-07 16:45:00,90.2,76.4,29.89,SE,135,8.0,15.0,64,0.00,,-RA,0.09,741.00,VWS V14.01,2013-08-07 20:45:00,
2013-08-07 16:50:00,89.6,75.8,29.89,SE,135,5.0,12.0,64,0.00,,-RA,0.09,199.00,VWS V14.01,2013-08-07 20:50:00,
2013-08-07 16:55:00,89.5,75.7,29.90,SE,135,8.0,15.0,64,0.00,,-RA,0.09,653.00,VWS V14.01,2013-08-07 20:55:00,
2013-08-07 17:00:00,89.8,75.5,29.90,SE,135,5.0,14.0,63,0.00,,-RA,0.09,645.00,VWS V14.01,2013-08-07 21:00:00,
2013-08-07 17:05:00,90.1,75.3,29.90,ESE,112,6.0,14.0,62,0.00,,-RA,0.09,623.00,VWS V14.01,2013-08-07 21:05:00,
2013-08-07 17:10:00,89.6,73.9,29.90,SE,135,8.0,15.0,60,0.00,,-RA,0.09,381.00,VWS V14.01,2013-08-07 21:10:00,
2013-08-07 17:15:00,89.7,75.4,29.90,SE,135,5.0,11.0,63,0.00,,-RA,0.09,334.00,VWS V14.01,2013-08-07 21:15:00,
2013-08-07 17:20:00,89.5,75.2,29.91,SE,135,6.0,14.0,63,0.00,,-RA,0.09,420.00,VWS V14.01,2013-08-07 21:20:00,
2013-08-07 17:25:00,89.5,75.7,29.91,East,90,2.0,9.0,64,0.00,,-RA,0.09,400.00,VWS V14.01,2013-08-07 21:25:00,
2013-08-07 17:30:00,89.6,75.3,29.91,SE,135,6.0,10.0,63,0.00,,-RA,0.09,317.00,VWS V14.01,2013-08-07 21:30:00,
2013-08-07 17:35:00,89.2,74.5,29.91,ESE,112,6.0,12.0,62,0.00,,-RA,0.09,292.00,VWS V14.01,2013-08-07 21:35:00,
2013-08-07 17:40:00,88.9,75.2,29.91,SE,135,6.0,11.0,64,0.00,,-RA,0.09,339.00,VWS V14.01,2013-08-07 21:40:00,
2013-08-07 17:45:00,88.9,75.2,29.90,SE,135,5.0,12.0,64,0.00,,-RA,0.09,416.00,VWS V14.01,2013-08-07 21:45:00,
2013-08-07 17:50:00,89.0,75.7,29.90,SE,135,5.0,12.0,65,0.00,,-RA,0.09,191.00,VWS V14.01,2013-08-07 21:50:00,
2013-08-07 17:55:00,88.5,75.2,29.91,SE,135,6.0,15.0,65,0.00,,-RA,0.09,197.00,VWS V14.01,2013-08-07 21:55:00,
2013-08-07 18:00:00,88.0,74.8,29.91,SE,135,5.0,11.0,65,0.00,,-RA,0.09,143.00,VWS V14.01,2013-08-07 22:00:00,
2013-08-07 18:05:00,87.7,74.9,29.90,SE,135,6.0,11.0,66,0.00,,-RA,0.09,193.00,VWS V14.01,2013-08-07 22:05:00,
2013-08-07 18:10:00,87.4,75.1,29.90,ESE,112,6.0,14.0,67,0.00,,-RA,0.09,353.00,VWS V14.01,2013-08-07 22:10:00,
2013-08-07 18:15:00,87.1,75.3,29.90,SE,135,7.0,14.0,68,0.00,,-RA,0.09,153.00,VWS V14.01,2013-08-07 22:15:00,
2013-08-07 18:20:00,87.0,75.2,29.89,SE,135,5.0,14.0,68,0.00,,-RA,0.09,132.00,VWS V14.01,2013-08-07 22:20:00,
2013-08-07 18:25:00,86.8,75.0,29.90,East,90,4.0,10.0,68,0.00,,-RA,0.09,139.00,VWS V14.01,2013-08-07 22:25:00,
2013-08-07 18:30:00,86.5,74.7,29.90,ESE,112,4.0,11.0,68,0.00,,-RA,0.09,136.00,VWS V14.01,2013-08-07 22:30:00,
2013-08-07 18:35:00,86.5,74.7,29.90,SE,135,5.0,10.0,68,0.00,,-RA,0.09,178.00,VWS V14.01,2013-08-07 22:35:00,
2013-08-07 18:40:00,86.3,74.1,29.90,ESE,112,5.0,11.0,67,0.00,,-RA,0.09,173.00,VWS V14.01,2013-08-07 22:40:00,
2013-08-07 18:45:00,86.5,75.1,29.90,ESE,112,3.0,9.0,69,0.00,,-RA,0.09,122.00,VWS V14.01,2013-08-07 22:45:00,
2013-08-07 18:50:00,86.3,74.5,29.89,ESE,112,4.0,10.0,68,0.00,,-RA,0.09,81.00,VWS V14.01,2013-08-07 22:50:00,
2013-08-07 18:55:00,86.1,74.8,29.89,ESE,112,4.0,11.0,69,0.00,,-RA,0.09,77.00,VWS V14.01,2013-08-07 22:55:00,
2013-08-07 19:00:00,86.1,75.2,29.89,ESE,112,3.0,11.0,70,0.00,,-RA,0.09,171.00,VWS V14.01,2013-08-07 23:00:00,
2013-08-07 19:05:00,86.0,75.5,29.89,ESE,112,4.0,10.0,71,0.00,,-RA,0.09,86.00,VWS V14.01,2013-08-07 23:05:00,
2013-08-07 19:10:00,85.8,75.3,29.89,ESE,112,4.0,11.0,71,0.00,,-RA,0.09,41.00,VWS V14.01,2013-08-07 23:10:00,
2013-08-07 19:15:00,85.6,75.5,29.89,SE,135,4.0,12.0,72,0.00,,-RA,0.09,34.00,VWS V14.01,2013-08-07 23:15:00,
2013-08-07 19:20:00,85.4,75.3,29.89,ESE,112,5.0,11.0,72,0.00,,-RA,0.09,28.00,VWS V14.01,2013-08-07 23:20:00,
2013-08-07 19:25:00,85.2,75.6,29.89,SE,135,6.0,15.0,73,0.00,,-RA,0.09,20.00,VWS V14.01,2013-08-07 23:25:00,
2013-08-07 19:30:00,84.8,75.2,29.89,SE,135,6.0,13.0,73,0.00,,-RA,0.09,18.00,VWS V14.01,2013-08-07 23:30:00,
2013-08-07 19:35:00,84.7,75.5,29.89,ESE,112,3.0,12.0,74,0.00,,-RA,0.09,16.00,VWS V14.01,2013-08-07 23:35:00,
2013-08-07 19:40:00,84.5,75.3,29.89,ESE,112,5.0,12.0,74,0.00,,-RA,0.09,14.00,VWS V14.01,2013-08-07 23:40:00,
2013-08-07 19:45:00,84.5,75.3,29.90,ESE,112,5.0,10.0,74,0.00,,-RA,0.09,13.00,VWS V14.01,2013-08-07 23:45:00,
2013-08-07 19:50:00,84.4,75.6,29.89,SE,135,4.0,10.0,75,0.00,,-RA,0.09,11.00,VWS V14.01,2013-08-07 23:50:00,
2013-08-07 19:55:00,84.3,75.5,29.90,SE,135,3.0,7.0,75,0.00,,-RA,0.09,7.00,VWS V14.01,2013-08-07 23:55:00,
2013-08-07 20:00:00,84.3,75.5,29.90,SE,135,3.0,11.0,75,0.00,,-RA,0.09,2.00,VWS V14.01,2013-08-08 00:00:00,
2013-08-07 20:05:00,84.1,75.3,29.90,ESE,112,4.0,9.0,75,0.00,,-RA,0.09,0.00,VWS V14.01,2013-08-08 00:05:00,
2013-08-07 20:10:00,83.9,75.5,29.90,ESE,112,4.0,9.0,76,0.00,,-RA,0.09,0.00,VWS V14.01,2013-08-08 00:10:00,
2013-08-07 20:15:00,83.9,75.5,29.90,ESE,112,3.0,6.0,76,0.00,,-RA,0.09,0.00,VWS V14.01,2013-08-08 00:15:00,
2013-08-07 20:20:00,83.8,75.4,29.90,ESE,112,4.0,10.0,76,0.00,,-RA,0.09,0.00,VWS V14.01,2013-08-08 00:20:00,
2013-08-07 20:25:00,83.7,75.7,29.90,ESE,112,4.0,11.0,77,0.00,,-RA,0.09,0.00,VWS V14.01,2013-08-08 00:25:00,
2013-08-07 20:30:00,83.6,75.6,29.90,ESE,112,4.0,10.0,77,0.00,,-RA,0.09,0.00,VWS V14.01,2013-08-08 00:30:00,
2013-08-07 20:35:00,83.6,76.0,29.90,SE,135,4.0,11.0,78,0.00,,-RA,0.09,0.00,VWS V14.01,2013-08-08 00:35:00,
2013-08-07 20:40:00,83.5,75.9,29.90,SE,135,2.0,7.0,78,0.00,,-RA,0.09,0.00,VWS V14.01,2013-08-08 00:40:00,
2013-08-07 20:45:00,83.4,75.8,29.90,ESE,112,4.0,8.0,78,0.00,,-RA,0.09,0.00,VWS V14.01,2013-08-08 00:45:00,
2013-08-07 20:50:00,83.4,75.8,29.90,SE,135,4.0,8.0,78,0.00,,-RA,0.09,0.00,VWS V14.01,2013-08-08 00:50:00,
2013-08-07 20:55:00,83.4,75.8,29.90,SE,135,3.0,9.0,78,0.00,,-RA,0.09,0.00,VWS V14.01,2013-08-08 00:55:00,
2013-08-07 21:00:00,83.3,75.7,29.91,SE,135,4.0,9.0,78,0.00,,-RA,0.09,0.00,VWS V14.01,2013-08-08 01:00:00,
2013-08-07 21:05:00,83.3,75.7,29.91,ESE,112,2.0,7.0,78,0.00,,-RA,0.09,0.00,VWS V14.01,2013-08-08 01:05:00,
2013-08-07 21:10:00,83.3,75.7,29.91,SE,135,2.0,7.0,78,0.00,,-RA,0.09,0.00,VWS V14.01,2013-08-08 01:10:00,
2013-08-07 21:15:00,83.3,75.7,29.91,SE,135,3.0,10.0,78,0.00,,-RA,0.09,0.00,VWS V14.01,2013-08-08 01:15:00,
2013-08-07 21:20:00,83.2,75.6,29.92,SE,135,4.0,9.0,78,0.00,,-RA,0.09,0.00,VWS V14.01,2013-08-08 01:20:00,
2013-08-07 21:25:00,83.3,75.7,29.92,SE,135,1.0,5.0,78,0.00,,-RA,0.09,0.00,VWS V14.01,2013-08-08 01:25:00,
2013-08-07 21:30:00,83.3,75.7,29.92,SE,135,1.0,5.0,78,0.00,,-RA,0.09,0.00,VWS V14.01,2013-08-08 01:30:00,
2013-08-07 21:35:00,83.3,75.7,29.92,SE,135,0.0,3.0,78,0.00,,-RA,0.09,0.00,VWS V14.01,2013-08-08 01:35:00,
2013-08-07 21:40:00,83.2,75.6,29.92,SE,135,0.0,3.0,78,0.00,,-RA,0.09,0.00,VWS V14.01,2013-08-08 01:40:00,
2013-08-07 21:45:00,83.2,75.6,29.92,SE,135,1.0,4.0,78,0.00,,-RA,0.09,0.00,VWS V14.01,2013-08-08 01:45:00,
2013-08-07 21:50:00,83.1,75.5,29.92,SE,135,0.0,3.0,78,0.00,,-RA,0.09,0.00,VWS V14.01,2013-08-08 01:50:00,
2013-08-07 21:55:00,83.1,75.5,29.93,SE,135,1.0,4.0,78,0.00,,-RA,0.09,0.00,VWS V14.01,2013-08-08 01:55:00,
2013-08-07 22:00:00,83.1,75.5,29.93,SE,135,2.0,7.0,78,0.00,,-RA,0.09,0.00,VWS V14.01,2013-08-08 02:00:00,
2013-08-07 22:05:00,83.1,75.9,29.93,SE,135,1.0,5.0,79,0.00,,-RA,0.09,0.00,VWS V14.01,2013-08-08 02:05:00,
2013-08-07 22:10:00,83.1,75.9,29.93,SE,135,1.0,3.0,79,0.00,,-RA,0.09,0.00,VWS V14.01,2013-08-08 02:10:00,
2013-08-07 22:15:00,83.0,75.8,29.94,ESE,112,1.0,3.0,79,0.00,,-RA,0.09,0.00,VWS V14.01,2013-08-08 02:15:00,
2013-08-07 22:20:00,83.0,75.8,29.94,ESE,112,0.0,1.0,79,0.00,,-RA,0.09,0.00,VWS V14.01,2013-08-08 02:20:00,
2013-08-07 22:25:00,83.1,75.9,29.94,ESE,112,0.0,2.0,79,0.00,,-RA,0.09,0.00,VWS V14.01,2013-08-08 02:25:00,
2013-08-07 22:30:00,83.1,75.9,29.94,ESE,112,0.0,2.0,79,0.00,,-RA,0.09,0.00,VWS V14.01,2013-08-08 02:30:00,
2013-08-07 22:35:00,83.0,76.2,29.94,ESE,112,0.0,2.0,80,0.00,,-RA,0.09,0.00,VWS V14.01,2013-08-08 02:35:00,
2013-08-07 22:40:00,83.0,76.2,29.95,SE,135,1.0,5.0,80,0.00,,-RA,0.09,0.00,VWS V14.01,2013-08-08 02:40:00,
2013-08-07 22:45:00,83.0,76.2,29.95,SE,135,0.0,1.0,80,0.00,,-RA,0.09,0.00,VWS V14.01,2013-08-08 02:45:00,
2013-08-07 22:50:00,82.9,76.1,29.95,SE,135,0.0,1.0,80,0.00,,-RA,0.09,0.00,VWS V14.01,2013-08-08 02:50:00,
2013-08-07 22:55:00,82.9,76.1,29.95,SE,135,1.0,3.0,80,0.00,,-RA,0.09,0.00,VWS V14.01,2013-08-08 02:55:00,
2013-08-07 23:00:00,82.8,76.0,29.95,SE,135,1.0,4.0,80,0.00,,-RA,0.09,0.00,VWS V14.01,2013-08-08 03:00:00,
2013-08-07 23:05:00,82.8,76.0,29.95,SE,135,1.0,5.0,80,0.00,,-RA,0.09,0.00,VWS V14.01,2013-08-08 03:05:00,
2013-08-07 23:10:00,82.8,76.0,29.95,SE,135,0.0,4.0,80,0.00,,-RA,0.09,0.00,VWS V14.01,2013-08-08 03:10:00,
2013-08-07 23:15:00,82.7,76.3,29.95,SE,135,0.0,4.0,81,0.00,,-RA,0.09,0.00,VWS V14.01,2013-08-08 03:15:00,
2013-08-07 23:20:00,82.7,76.3,29.95,SE,135,0.0,2.0,81,0.00,,-RA,0.09,0.00,VWS V14.01,2013-08-08 03:20:00,
2013-08-07 23:25:00,82.6,76.2,29.95,SE,135,1.0,4.0,81,0.00,,-RA,0.09,0.00,VWS V14.01,2013-08-08 03:25:00,
2013-08-07 23:30:00,82.6,76.2,29.95,SE,135,1.0,3.0,81,0.00,,-RA,0.09,0.00,VWS V14.01,2013-08-08 03:30:00,
2013-08-07 23:35:00,82.5,76.1,29.95,SE,135,0.0,2.0,81,0.00,,-RA,0.09,0.00,VWS V14.01,2013-08-08 03:35:00,
2013-08-07 23:40:00,82.4,76.0,29.95,SE,135,1.0,6.0,81,0.00,,-RA,0.09,0.00,VWS V14.01,2013-08-08 03:40:00,
2013-08-07 23:45:00,82.4,76.0,29.95,East,90,1.0,3.0,81,0.00,,-RA,0.09,0.00,VWS V14.01,2013-08-08 03:45:00,
2013-08-07 23:50:00,82.3,75.9,29.95,East,90,1.0,4.0,81,0.00,,-RA,0.09,0.00,VWS V14.01,2013-08-08 03:50:00,
2013-08-07 23:55:00,82.3,75.9,29.94,East,90,1.0,5.0,81,0.00,,-RA,0.09,0.00,VWS V14.01,2013-08-08 03:55:00,